BAW428 EGLL-EHAM

Flight info

Callsign BAW428
Flight time 0h 43m
Altitude 29000
Route BPK6J BPK Q295 BRAIN M197 REDFA REDFA1A
Aircraft B744/H-VGD/A

Departure

Time 2026-05-06 12:04
Airport London Heathrow Airport (EGLL)

Arrival

Time 2026-05-06 12:48
Airport Amsterdam Airport Schiphol (EHAM)
Time Latitude Longitude Altitude Speed Heading
2026-05-06 11:22 51.47117 -0.47721 96 ft 0 kts 90°
2026-05-06 11:49 51.47118 -0.47736 97 ft 1 kts 89°
2026-05-06 11:49 51.47117 -0.47762 97 ft 1 kts 87°
2026-05-06 11:49 51.47116 -0.47787 97 ft 1 kts 89°
2026-05-06 11:49 51.47116 -0.47813 97 ft 0 kts 93°
2026-05-06 11:50 51.47118 -0.47837 97 ft 2 kts 108°
2026-05-06 11:50 51.47122 -0.47857 97 ft 2 kts 130°
2026-05-06 11:50 51.47130 -0.47871 97 ft 1 kts 156°
2026-05-06 11:50 51.47143 -0.47878 97 ft 1 kts 175°
2026-05-06 11:51 51.47159 -0.47879 97 ft 0 kts 180°
2026-05-06 11:51 51.47161 -0.47879 97 ft 0 kts 180°
2026-05-06 11:53 51.47153 -0.47879 97 ft 2 kts 180°
2026-05-06 11:53 51.47141 -0.47879 97 ft 2 kts 180°
2026-05-06 11:53 51.47131 -0.47879 97 ft 1 kts 180°
2026-05-06 11:54 51.47124 -0.47879 97 ft 1 kts 180°
2026-05-06 11:54 51.47120 -0.47879 97 ft 0 kts 180°
2026-05-06 11:54 51.47118 -0.47879 97 ft 0 kts 180°
2026-05-06 11:54 51.47112 -0.47879 97 ft 2 kts 180°
2026-05-06 11:55 51.47084 -0.47878 97 ft 6 kts 180°
2026-05-06 11:55 51.47034 -0.47878 97 ft 9 kts 180°
2026-05-06 11:55 51.46965 -0.47877 97 ft 12 kts 180°
2026-05-06 11:55 51.46881 -0.47876 97 ft 12 kts 180°
2026-05-06 11:56 51.46802 -0.47876 97 ft 11 kts 180°
2026-05-06 11:56 51.46743 -0.47875 97 ft 0 kts 179°
2026-05-06 11:59 51.46716 -0.47875 97 ft 14 kts 181°
2026-05-06 12:00 51.46636 -0.47910 97 ft 10 kts 236°
2026-05-06 12:00 51.46625 -0.48015 97 ft 9 kts 269°
2026-05-06 12:00 51.46624 -0.48082 97 ft 9 kts 269°
2026-05-06 12:00 51.46624 -0.48181 97 ft 8 kts 269°
2026-05-06 12:01 51.46623 -0.48271 97 ft 8 kts 269°
2026-05-06 12:01 51.46624 -0.48355 97 ft 5 kts 270°
2026-05-06 12:01 51.46624 -0.48408 97 ft 5 kts 270°
2026-05-06 12:01 51.46618 -0.48456 97 ft 4 kts 239°
2026-05-06 12:02 51.46594 -0.48476 97 ft 4 kts 190°
2026-05-06 12:02 51.46569 -0.48478 97 ft 3 kts 179°
2026-05-06 12:02 51.46546 -0.48477 97 ft 3 kts 178°
2026-05-06 12:02 51.46526 -0.48475 97 ft 3 kts 177°
2026-05-06 12:03 51.46494 -0.48460 97 ft 6 kts 146°
2026-05-06 12:03 51.46480 -0.48399 97 ft 6 kts 91°
2026-05-06 12:03 51.46479 -0.48337 97 ft 5 kts 90°
2026-05-06 12:03 51.46479 -0.48244 97 ft 25 kts 90°
2026-05-06 12:04 51.46481 -0.47489 97 ft 111 kts 89°
2026-05-06 12:04 51.46488 -0.45844 118 ft 179 kts 89°
2026-05-06 12:04 51.46505 -0.43698 655 ft 200 kts 88°
2026-05-06 12:04 51.46766 -0.41514 1579 ft 197 kts 67°
2026-05-06 12:05 51.47443 -0.39730 2821 ft 187 kts 53°
2026-05-06 12:05 51.48302 -0.38018 3481 ft 209 kts 49°
2026-05-06 12:05 51.49326 -0.36162 3982 ft 240 kts 46°
2026-05-06 12:05 51.50479 -0.34128 4915 ft 250 kts 47°
2026-05-06 12:06 51.51468 -0.31752 5718 ft 257 kts 58°
2026-05-06 12:06 51.52247 -0.29161 6278 ft 259 kts 63°
2026-05-06 12:06 51.52938 -0.26450 6148 ft 266 kts 66°
2026-05-06 12:06 51.53573 -0.23784 5965 ft 266 kts 67°
2026-05-06 12:07 51.54288 -0.20913 5993 ft 266 kts 60°
2026-05-06 12:07 51.55491 -0.18726 5962 ft 260 kts 34°
2026-05-06 12:07 51.57138 -0.17581 6070 ft 260 kts 14°
2026-05-06 12:07 51.58953 -0.17364 6290 ft 262 kts
2026-05-06 12:08 51.60746 -0.17203 7261 ft 267 kts
2026-05-06 12:08 51.62579 -0.16647 8479 ft 269 kts 12°
2026-05-06 12:08 51.64404 -0.15800 9475 ft 277 kts 16°
2026-05-06 12:08 51.66238 -0.14791 10494 ft 285 kts 16°
2026-05-06 12:09 51.68203 -0.13815 11108 ft 307 kts 15°
2026-05-06 12:09 51.70367 -0.12815 11372 ft 341 kts 14°
2026-05-06 12:09 51.72628 -0.11165 11646 ft 373 kts 32°
2026-05-06 12:09 51.74472 -0.08181 12594 ft 385 kts 52°
2026-05-06 12:10 51.75692 -0.04283 13803 ft 390 kts 69°
2026-05-06 12:10 51.76250 -0.00024 14879 ft 396 kts 81°
2026-05-06 12:10 51.76466 0.04494 15934 ft 403 kts 86°
2026-05-06 12:10 51.76679 0.08996 16864 ft 411 kts 84°
2026-05-06 12:11 51.76992 0.13618 17843 ft 417 kts 83°
2026-05-06 12:11 51.77379 0.18362 18756 ft 425 kts 82°
2026-05-06 12:11 51.77769 0.23074 19618 ft 431 kts 83°
2026-05-06 12:11 51.78151 0.27947 20432 ft 439 kts 82°
2026-05-06 12:12 51.78568 0.32839 21282 ft 444 kts 83°
2026-05-06 12:12 51.78973 0.37851 22116 ft 450 kts 83°
2026-05-06 12:12 51.79370 0.42893 22861 ft 457 kts 83°
2026-05-06 12:12 51.79768 0.47997 23671 ft 461 kts 83°
2026-05-06 12:13 51.80166 0.53138 24412 ft 466 kts 84°
2026-05-06 12:13 51.80571 0.58364 25186 ft 470 kts 83°
2026-05-06 12:13 51.80987 0.63620 25927 ft 474 kts 83°
2026-05-06 12:13 51.81605 0.68891 26744 ft 475 kts 77°
2026-05-06 12:14 51.82420 0.74014 27836 ft 469 kts 75°
2026-05-06 12:14 51.83240 0.79154 28621 ft 470 kts 76°
2026-05-06 12:14 51.84056 0.84238 28963 ft 469 kts 75°
2026-05-06 12:14 51.84969 0.89311 28972 ft 468 kts 73°
2026-05-06 12:15 51.86820 0.99377 28966 ft 466 kts 74°
2026-05-06 12:15 51.88625 1.09410 28965 ft 466 kts 74°
2026-05-06 12:16 51.90440 1.19485 28965 ft 466 kts 73°
2026-05-06 12:16 51.92337 1.29559 28965 ft 471 kts 74°
2026-05-06 12:17 51.94147 1.39779 28961 ft 471 kts 75°
2026-05-06 12:17 51.95936 1.50021 28961 ft 472 kts 75°
2026-05-06 12:18 51.97723 1.60286 28959 ft 472 kts 75°
2026-05-06 12:18 51.99490 1.70545 28958 ft 472 kts 76°
2026-05-06 12:19 52.01082 1.80819 28956 ft 472 kts 77°
2026-05-06 12:19 52.02662 1.91134 28961 ft 461 kts 77°
2026-05-06 12:20 52.03424 1.96105 28961 ft 449 kts 77°
2026-05-06 12:20 52.04209 2.00986 28957 ft 446 kts 76°
2026-05-06 12:20 52.05785 2.10787 28954 ft 450 kts 77°
2026-05-06 12:21 52.07287 2.20674 28951 ft 450 kts 77°
2026-05-06 12:21 52.08760 2.30485 28947 ft 449 kts 77°
2026-05-06 12:22 52.10236 2.40351 28945 ft 449 kts 78°
2026-05-06 12:22 52.12095 2.50058 28948 ft 450 kts 66°
2026-05-06 12:23 52.15061 2.59051 28942 ft 451 kts 60°
2026-05-06 12:23 52.18305 2.67818 28940 ft 451 kts 59°
2026-05-06 12:24 52.21497 2.76632 28939 ft 450 kts 60°
2026-05-06 12:24 52.24640 2.85412 28938 ft 450 kts 60°
2026-05-06 12:25 52.27783 2.94237 28937 ft 450 kts 60°
2026-05-06 12:25 52.31017 3.03018 28936 ft 450 kts 59°
2026-05-06 12:26 52.34188 3.11854 28936 ft 450 kts 60°
2026-05-06 12:26 52.37307 3.20720 28935 ft 449 kts 60°
2026-05-06 12:27 52.40422 3.29612 28935 ft 449 kts 61°
2026-05-06 12:27 52.43507 3.38433 28934 ft 449 kts 62°
2026-05-06 12:28 52.45752 3.47958 28935 ft 448 kts 75°
2026-05-06 12:28 52.47204 3.57890 28934 ft 446 kts 79°
2026-05-06 12:29 52.48513 3.67651 28928 ft 423 kts 79°
2026-05-06 12:29 52.49126 3.72082 28926 ft 408 kts 79°
2026-05-06 12:29 52.49761 3.76660 28924 ft 394 kts 79°
2026-05-06 12:30 52.50947 3.85198 28925 ft 387 kts 79°
2026-05-06 12:30 52.51602 3.93971 28884 ft 382 kts 101°
2026-05-06 12:31 52.50779 3.98088 28931 ft 379 kts 119°
2026-05-06 12:31 52.49489 4.01724 28932 ft 375 kts 126°
2026-05-06 12:31 52.46535 4.08563 28906 ft 364 kts 131°
2026-05-06 12:32 52.44941 4.11774 28745 ft 362 kts 133°
2026-05-06 12:32 52.43306 4.14938 28369 ft 360 kts 133°
2026-05-06 12:32 52.41626 4.17890 27936 ft 355 kts 142°
2026-05-06 12:32 52.39575 4.20053 27486 ft 349 kts 158°
2026-05-06 12:33 52.37266 4.21190 27001 ft 345 kts 173°
2026-05-06 12:33 52.34892 4.21199 26573 ft 340 kts 189°
2026-05-06 12:33 52.32653 4.20081 26138 ft 336 kts 206°
2026-05-06 12:33 52.30689 4.18023 25753 ft 334 kts 219°
2026-05-06 12:34 52.29138 4.15249 25325 ft 332 kts 234°
2026-05-06 12:34 52.27971 4.12042 24960 ft 330 kts 240°
2026-05-06 12:34 52.26908 4.08726 24576 ft 329 kts 242°
2026-05-06 12:34 52.26077 4.05225 24144 ft 329 kts 257°
2026-05-06 12:35 52.26006 4.01541 23763 ft 329 kts 276°
2026-05-06 12:35 52.26728 3.98017 23351 ft 332 kts 296°
2026-05-06 12:35 52.28088 3.94966 22950 ft 333 kts 308°
2026-05-06 12:35 52.29658 3.92193 22590 ft 332 kts 311°
2026-05-06 12:36 52.31276 3.89498 22246 ft 330 kts 313°
2026-05-06 12:36 52.32890 3.86817 21888 ft 328 kts 312°
2026-05-06 12:36 52.34473 3.84190 21557 ft 326 kts 313°
2026-05-06 12:36 52.36067 3.81575 21190 ft 325 kts 316°
2026-05-06 12:37 52.37987 3.79684 20764 ft 327 kts 338°
2026-05-06 12:37 52.40219 3.78898 20374 ft 328 kts 351°
2026-05-06 12:37 52.42493 3.78505 19959 ft 328 kts 353°
2026-05-06 12:37 52.44781 3.78221 19558 ft 328 kts 354°
2026-05-06 12:38 52.47026 3.78278 19164 ft 327 kts
2026-05-06 12:38 52.49129 3.79639 18788 ft 327 kts 31°
2026-05-06 12:38 52.50860 3.82059 18392 ft 327 kts 44°
2026-05-06 12:38 52.52407 3.84801 17985 ft 328 kts 48°
2026-05-06 12:39 52.53552 3.87997 17566 ft 327 kts 70°
2026-05-06 12:39 52.53875 3.91718 17123 ft 328 kts 92°
2026-05-06 12:39 52.53341 3.95296 16592 ft 328 kts 114°
2026-05-06 12:39 52.52151 3.98484 16052 ft 326 kts 126°
2026-05-06 12:40 52.50788 4.01429 15436 ft 325 kts 129°
2026-05-06 12:40 52.49385 4.04343 14813 ft 325 kts 129°
2026-05-06 12:40 52.47969 4.07240 14186 ft 324 kts 129°
2026-05-06 12:40 52.46654 4.09909 13606 ft 324 kts 129°
2026-05-06 12:41 52.46484 4.10252 13531 ft 324 kts 129°
2026-05-06 12:41 52.45078 4.13075 12918 ft 323 kts 129°
2026-05-06 12:41 52.43633 4.15952 12355 ft 320 kts 129°
2026-05-06 12:41 52.42241 4.18700 11812 ft 317 kts 129°
2026-05-06 12:42 52.40829 4.21460 11261 ft 314 kts 129°
2026-05-06 12:42 52.39423 4.24174 10685 ft 312 kts 129°
2026-05-06 12:42 52.37993 4.26894 9983 ft 314 kts 129°
2026-05-06 12:42 52.36554 4.29597 9281 ft 315 kts 129°
2026-05-06 12:43 52.35109 4.32275 8448 ft 320 kts 130°
2026-05-06 12:43 52.33611 4.35037 7592 ft 324 kts 130°
2026-05-06 12:43 52.32104 4.37807 6765 ft 326 kts 129°
2026-05-06 12:43 52.30597 4.40558 6131 ft 321 kts 130°
2026-05-06 12:44 52.29116 4.43254 5506 ft 317 kts 129°
2026-05-06 12:44 52.27643 4.45895 4618 ft 321 kts 130°
2026-05-06 12:44 52.26147 4.48520 3583 ft 328 kts 130°
2026-05-06 12:44 52.24618 4.51159 2987 ft 320 kts 130°
2026-05-06 12:45 52.23122 4.53721 2529 ft 307 kts 129°
2026-05-06 12:45 52.22254 4.55557 2205 ft 308 kts 117°
2026-05-06 12:45 52.22149 4.63199 1770 ft 287 kts 63°
2026-05-06 12:46 52.23374 4.65573 1352 ft 270 kts 38°
2026-05-06 12:46 52.25038 4.66649 1068 ft 241 kts 11°
2026-05-06 12:46 52.26574 4.67084 789 ft 215 kts 22°
2026-05-06 12:46 52.27594 4.68541 650 ft 183 kts 57°
2026-05-06 12:47 52.27843 4.70437 510 ft 161 kts 82°
2026-05-06 12:47 52.28163 4.72051 265 ft 141 kts 63°
2026-05-06 12:47 52.28709 4.73341 101 ft 136 kts 54°
2026-05-06 12:47 52.29250 4.74594 8 ft 128 kts 56°
2026-05-06 12:48 52.29615 4.75543 3 ft 53 kts 59°
2026-05-06 12:48 52.29729 4.75851 3 ft 27 kts 58°
2026-05-06 12:48 52.29827 4.76110 3 ft 28 kts 58°
2026-05-06 12:48 52.29931 4.76379 3 ft 27 kts 58°
2026-05-06 12:49 52.29990 4.76533 3 ft 3 kts 58°
2026-05-06 12:49 52.30000 4.76558 3 ft 1 kts 49°
2026-05-06 12:49 52.30016 4.76570 3 ft 7 kts 20°
2026-05-06 12:49 52.30080 4.76605 3 ft 8 kts 20°
2026-05-06 12:50 52.30106 4.76626 3 ft 6 kts 28°
2026-05-06 12:50 52.30142 4.76657 3 ft 6 kts 28°
2026-05-06 12:50 52.30165 4.76676 3 ft 2 kts 25°
2026-05-06 12:50 52.30180 4.76686 3 ft 2 kts 21°
2026-05-06 12:51 52.30195 4.76696 3 ft 2 kts 21°
2026-05-06 12:51 52.30201 4.76700 3 ft 0 kts 22°
2026-05-06 12:52 52.30203 4.76701 3 ft 2 kts 22°
2026-05-06 12:52 52.30211 4.76707 3 ft 0 kts 23°
2026-05-06 12:52 52.30228 4.76720 3 ft 8 kts 25°
2026-05-06 12:52 52.30275 4.76746 3 ft 7 kts
2026-05-06 12:53 52.30321 4.76736 3 ft 7 kts 341°
2026-05-06 12:53 52.30363 4.76745 3 ft 7 kts 38°
2026-05-06 12:53 52.30397 4.76807 3 ft 8 kts 55°
2026-05-06 12:53 52.30431 4.76890 3 ft 10 kts 58°
2026-05-06 12:54 52.30470 4.76993 3 ft 12 kts 57°
2026-05-06 12:54 52.30517 4.77114 3 ft 14 kts 58°
2026-05-06 12:54 52.30572 4.77252 3 ft 15 kts 57°
2026-05-06 12:54 52.30634 4.77408 3 ft 17 kts 47°
2026-05-06 12:55 52.30739 4.77481 3 ft 17 kts
2026-05-06 12:55 52.30865 4.77492 3 ft 19 kts
2026-05-06 12:55 52.31006 4.77501 3 ft 21 kts
2026-05-06 12:55 52.31159 4.77515 3 ft 23 kts
2026-05-06 12:56 52.31309 4.77486 3 ft 21 kts 331°
2026-05-06 12:56 52.31410 4.77332 3 ft 19 kts 311°
2026-05-06 12:56 52.31471 4.77147 3 ft 19 kts 277°
2026-05-06 12:56 52.31472 4.76942 3 ft 18 kts 266°
2026-05-06 12:57 52.31466 4.76760 3 ft 14 kts 268°
2026-05-06 12:57 52.31425 4.76627 3 ft 13 kts 221°
2026-05-06 12:57 52.31357 4.76535 3 ft 12 kts 221°
2026-05-06 12:57 52.31283 4.76500 3 ft 8 kts 149°
2026-05-06 12:58 52.31280 4.76506 3 ft 0 kts 134°
2026-05-06 12:58 52.31270 4.76543 3 ft 5 kts 109°
2026-05-06 12:58 52.31262 4.76576 3 ft 2 kts 117°
2026-05-06 12:58 52.31257 4.76592 3 ft 1 kts 118°
2026-05-06 12:59 52.31253 4.76604 3 ft 1 kts 119°
2026-05-06 12:59 52.31250 4.76612 3 ft 1 kts 119°
2026-05-06 12:59 52.31249 4.76614 3 ft 0 kts 119°
2026-05-06 13:43 52.31250 4.76611 3 ft 1 kts 119°
2026-05-06 13:43 52.31258 4.76589 3 ft 1 kts 118°
2026-05-06 13:43 52.31265 4.76566 3 ft 1 kts 117°
2026-05-06 13:43 52.31273 4.76542 3 ft 0 kts 117°
2026-05-06 13:44 52.31280 4.76520 3 ft 2 kts 108°
2026-05-06 13:44 52.31284 4.76499 3 ft 2 kts 88°
2026-05-06 13:44 52.31283 4.76478 3 ft 2 kts 64°
2026-05-06 13:44 52.31277 4.76460 3 ft 2 kts 40°
2026-05-06 13:45 52.31266 4.76447 3 ft 1 kts 17°
2026-05-06 13:45 52.31253 4.76441 3 ft 0 kts 13°
2026-05-06 13:47 52.31254 4.76441 3 ft 0 kts 13°
2026-05-06 13:47 52.31259 4.76443 3 ft 2 kts 13°
2026-05-06 13:48 52.31285 4.76451 3 ft 4 kts
2026-05-06 13:48 52.31313 4.76447 3 ft 4 kts 348°
2026-05-06 13:48 52.31340 4.76436 3 ft 4 kts 346°
2026-05-06 13:48 52.31366 4.76425 3 ft 4 kts 346°
2026-05-06 13:49 52.31393 4.76418 3 ft 4 kts 358°
2026-05-06 13:49 52.31430 4.76427 3 ft 7 kts
2026-05-06 13:49 52.31479 4.76400 3 ft 9 kts 308°
2026-05-06 13:49 52.31525 4.76299 3 ft 12 kts 304°
2026-05-06 13:50 52.31539 4.76174 3 ft 12 kts 266°
2026-05-06 13:50 52.31535 4.76044 3 ft 11 kts 267°
2026-05-06 13:50 52.31532 4.75919 3 ft 11 kts 267°
2026-05-06 13:50 52.31528 4.75801 3 ft 10 kts 267°
2026-05-06 13:51 52.31525 4.75687 3 ft 10 kts 267°
2026-05-06 13:51 52.31522 4.75577 3 ft 9 kts 267°
2026-05-06 13:51 52.31519 4.75473 3 ft 9 kts 266°
2026-05-06 13:51 52.31514 4.75371 3 ft 9 kts 266°
2026-05-06 13:52 52.31510 4.75265 3 ft 11 kts 266°
2026-05-06 13:52 52.31505 4.75125 3 ft 14 kts 266°
2026-05-06 13:52 52.31498 4.74942 3 ft 18 kts 266°
2026-05-06 13:52 52.31491 4.74735 3 ft 18 kts 275°
2026-05-06 13:53 52.31572 4.74653 3 ft 17 kts 34°
2026-05-06 13:53 52.31623 4.74660 3 ft 7 kts
2026-05-06 13:53 52.31662 4.74695 3 ft 6 kts 55°
2026-05-06 13:53 52.31668 4.74755 3 ft 0 kts 87°
2026-05-06 13:54 52.31670 4.74807 3 ft 24 kts 87°
2026-05-06 13:54 52.31695 4.75544 3 ft 105 kts 86°
2026-05-06 13:55 52.31753 4.77132 80 ft 165 kts 86°
2026-05-06 13:55 52.31826 4.79088 685 ft 178 kts 85°
2026-05-06 13:55 52.32241 4.80978 1518 ft 176 kts 53°
2026-05-06 13:55 52.33270 4.81968 2440 ft 179 kts 19°
2026-05-06 13:56 52.34580 4.81961 2946 ft 204 kts 356°
2026-05-06 13:56 52.35983 4.81337 3626 ft 217 kts 343°
2026-05-06 13:56 52.37364 4.80231 4464 ft 223 kts 337°
2026-05-06 13:56 52.38727 4.78879 5294 ft 238 kts 328°
2026-05-06 13:57 52.40047 4.77062 6019 ft 257 kts 320°
2026-05-06 13:57 52.41329 4.74954 6967 ft 264 kts 316°
2026-05-06 13:57 52.42609 4.72738 7919 ft 270 kts 316°
2026-05-06 13:57 52.43932 4.70523 8876 ft 276 kts 317°
2026-05-06 13:58 52.45278 4.68238 9791 ft 283 kts 311°
2026-05-06 13:58 52.46208 4.65338 10519 ft 296 kts 291°
2026-05-06 13:58 52.46754 4.61948 10998 ft 322 kts 282°
2026-05-06 13:58 52.46845 4.58088 11195 ft 355 kts 264°
2026-05-06 13:59 52.46090 4.54066 11427 ft 388 kts 245°
2026-05-06 13:59 52.45650 4.52792 11514 ft 398 kts 239°